Orbital elements of FENGYUN 1C DEB
| Launched | 9 May 1999 |
| Flight ended | – |
| Launch site | Taiyuan Space Center, PRC |
| Owner | People's Republic of China |
| NORAD ID | 31944 |
| Date fetched |
Epoch osculation |
Inc. [°] |
Ecc. | RA asc node [hr] |
Arg Peri. [°] |
Mean anom [°] |
Mean motion [rev/day] |
Abs. mag |
| Date fetched |
Epoch osculation |
Inc. [°] |
Ecc. | RA asc node [hr] |
Arg Peri. [°] |
Mean anom [°] |
Mean motion [rev/day] |
Abs. mag |
| 2026 May 07 17:58 | 2026 May 04 17:02:35 | 99.2213 | 0.01499 | 18.7429 | 323.8340 | 50.4397 | 14.12228 | – |
| 2026 May 06 17:57 | 2026 May 04 17:02:35 | 99.2213 | 0.01499 | 18.7429 | 323.8340 | 50.4397 | 14.12228 | – |
| 2026 May 05 17:57 | 2026 May 04 17:02:35 | 99.2213 | 0.01499 | 18.7429 | 323.8340 | 50.4397 | 14.12228 | – |
| 2026 May 04 17:57 | 2026 Apr 28 05:22:33 | 99.2200 | 0.01502 | 18.2981 | 342.1305 | 50.4397 | 14.12228 | – |
| 2026 May 03 17:57 | 2026 Apr 28 05:22:33 | 99.2200 | 0.01502 | 18.2981 | 342.1305 | 50.4397 | 14.12228 | – |
| 2026 May 02 17:57 | 2026 Apr 28 05:22:33 | 99.2200 | 0.01502 | 18.2981 | 342.1305 | 50.4397 | 14.12228 | – |
| 2026 May 01 17:56 | 2026 Apr 28 05:22:33 | 99.2200 | 0.01502 | 18.2981 | 342.1305 | 50.4397 | 14.12228 | – |
| 2026 Apr 30 17:56 | 2026 Apr 28 05:22:33 | 99.2200 | 0.01502 | 18.2981 | 342.1305 | 50.4397 | 14.12228 | – |
| 2026 Apr 29 17:57 | 2026 Apr 21 05:02:44 | 99.2190 | 0.01505 | 17.8171 | 1.8782 | 50.4397 | 14.12228 | – |
| 2026 Apr 28 17:56 | 2026 Apr 21 05:02:44 | 99.2190 | 0.01505 | 17.8171 | 1.8782 | 50.4397 | 14.12228 | – |
| 2026 Apr 27 17:58 | 2026 Apr 21 05:02:44 | 99.2190 | 0.01505 | 17.8171 | 1.8782 | 50.4397 | 14.12228 | – |
| 2026 Apr 26 17:58 | 2026 Apr 21 05:02:44 | 99.2190 | 0.01505 | 17.8171 | 1.8782 | 50.4397 | 14.12228 | – |
| 2026 Apr 25 17:58 | 2026 Apr 21 05:02:44 | 99.2190 | 0.01505 | 17.8171 | 1.8782 | 50.4397 | 14.12228 | – |
| 2026 Apr 24 17:59 | 2026 Apr 21 05:02:44 | 99.2190 | 0.01505 | 17.8171 | 1.8782 | 50.4397 | 14.12228 | – |
| 2026 Apr 23 17:57 | 2026 Apr 18 07:02:20 | 99.2190 | 0.01507 | 17.6170 | 10.0827 | 50.4397 | 14.12228 | – |
| 2026 Apr 22 17:57 | 2026 Apr 18 07:02:20 | 99.2190 | 0.01507 | 17.6170 | 10.0827 | 50.4397 | 14.12228 | – |
| 2026 Apr 21 17:57 | 2026 Apr 18 07:02:20 | 99.2190 | 0.01507 | 17.6170 | 10.0827 | 50.4397 | 14.12228 | – |
| 2026 Apr 20 17:57 | 2026 Apr 18 07:02:20 | 99.2190 | 0.01507 | 17.6170 | 10.0827 | 50.4397 | 14.12228 | – |
| 2026 Apr 19 17:58 | 2026 Apr 18 07:02:20 | 99.2190 | 0.01507 | 17.6170 | 10.0827 | 50.4397 | 14.12228 | – |
| 2026 Apr 18 17:56 | 2026 Apr 11 06:41:48 | 99.2180 | 0.01511 | 17.1361 | 29.7797 | 50.4397 | 14.12228 | – |
| 2026 Apr 16 17:57 | 2026 Apr 11 06:41:48 | 99.2180 | 0.01511 | 17.1361 | 29.7797 | 50.4397 | 14.12228 | – |
| 2026 Apr 14 17:57 | 2026 Apr 11 06:41:48 | 99.2180 | 0.01511 | 17.1361 | 29.7797 | 50.4397 | 14.12228 | – |
| 2026 Apr 13 17:57 | 2026 Apr 11 06:41:48 | 99.2180 | 0.01511 | 17.1361 | 29.7797 | 50.4397 | 14.12228 | – |
| 2026 Apr 12 17:57 | 2026 Apr 02 05:19:09 | 99.2164 | 0.01515 | 16.5152 | 55.1086 | 50.4397 | 14.12228 | – |
| 2026 Apr 11 17:57 | 2026 Apr 02 05:19:09 | 99.2164 | 0.01515 | 16.5152 | 55.1086 | 50.4397 | 14.12228 | – |
| 2026 Apr 10 17:58 | 2026 Apr 02 05:19:09 | 99.2164 | 0.01515 | 16.5152 | 55.1086 | 50.4397 | 14.12228 | – |